Location: Gebenbach
(49.5378°N, 11.8735°E)
Time: 12:20:01
(UTC+00:00)

Cosmos 1417 Rocket - Pass Details

Date: 29 October 2020
Orbit: 952 x 998 km, 83.0° (Epoch: 25 November)

Event Time Altitude Azimuth Distance (km) Brightness Sun altitude
Rises 17:23:54 0° 181° (S) 3,663 7.6 -14.9°
Reaches altitude 10° 17:26:23 10° 179° (S) 2,726 6.9 -15.3°
Maximum altitude 17:32:37 75° 96° (E) 1,026 4.4 -16.3°
Drops below altitude 10° 17:38:58 10° 12° (NNE) 2,772 6.7 -17.3°
Sets 17:41:31 0° 11° (N) 3,728 7.4 -17.8°
